Location: Moscow
(55.7500°N, 37.5830°E)
Time: 10:02:38
(UTC+03:00)

Transit 4A - Pass Details

Date: 04 December 2021
Orbit: 863 x 981 km, 66.8° (Epoch: 23 January)

Event Time Altitude Azimuth Distance (km) Brightness Sun altitude
Exits shadow 04:37:50 20° 167° (SSE) 2,086 9.7 -32.5°
Drops below altitude 10° 04:39:39 10° 161° (SSE) 2,714 10.4 -32.2°
Sets 04:42:16 0° 158° (SSE) 3,666 11.2 -31.9°
